User: anonymous   Login
Location: L�tisburg
(47.3947°N, 9.0820°E)
Time: 16:32:57
(UTC+00:00)
Language:

Resurs 01 Rocket - Orbit

View from above orbital plane
View from above orbital plane
View from above satellite
View from above satellite

Ground track
Ground track

The orbit data is extracted from the following two-line orbital elements,

1 23343U 94074B   21135.78120207  .00000047  00000-0  13993-4 0  9998
2 23343  97.9488 190.9090 0007529 150.0352 328.7461 14.76879097427461
Epoch (UTC): 15 May 2021 18:44:55
Eccentricity: 0.0007529
inclination: 97.9488°
perigee height: 634 km
apogee height: 644 km
right ascension of ascending node: 190.9090°
argument of perigee: 150.0352°
revolutions per day: 14.76879097
mean anomaly at epoch: 328.7461°
orbit number at epoch: 42746

The dashed part of the orbit path shows where the satellite is in the earth's shadow,  

DLR